Hourly Weather Chachkovo

Today, 25 June, Friday

Time Temperature Precipitation Wind Pressure Humidity
00:00 +20°C° 1.3 mm 2 mps 738 mmHg 90%
01:00 +20°C° 1.3 mm 2 mps 738 mmHg 90%
02:00 +20°C° 0 mm 2 mps 738 mmHg 89%
03:00 +20°C° 1.2 mm 2 mps 738 mmHg 89%
04:00 +20°C° 1.2 mm 2 mps 738 mmHg 90%
05:00 +21°C° 1.2 mm 1 mps 737 mmHg 91%
06:00 +21°C° 0 mm 2 mps 738 mmHg 88%
07:00 +24°C° 0 mm 2 mps 738 mmHg 86%
08:00 +25°C° 0 mm 2 mps 738 mmHg 84%
09:00 +26°C° 0 mm 3 mps 738 mmHg 79%
10:00 +27°C° 0 mm 3 mps 738 mmHg 73%
11:00 +29°C° 0 mm 3 mps 738 mmHg 68%
12:00 +29°C° 0.1 mm 3 mps 738 mmHg 68%
13:00 +28°C° 0.1 mm 3 mps 738 mmHg 67%
14:00 +28°C° 0.1 mm 3 mps 738 mmHg 67%
15:00 +28°C° 0 mm 3 mps 738 mmHg 68%
16:00 +28°C° 0 mm 2 mps 737 mmHg 70%
17:00 +27°C° 0 mm 2 mps 737 mmHg 72%
18:00 +26°C° 0.1 mm 1 mps 737 mmHg 75%
19:00 +25°C° 0.1 mm 1 mps 736 mmHg 79%
20:00 +25°C° 0.1 mm 1 mps 736 mmHg 83%
21:00 +23°C° 3.2 mm 2 mps 736 mmHg 87%
22:00 +21°C° 3.2 mm 4 mps 737 mmHg 91%
23:00 +20°C° 3.2 mm 6 mps 737 mmHg 95%

Tomorrow, 26 June, Saturday

Time Temperature Precipitation Wind Pressure Humidity
00:00 +19°C° 1.1 mm 4 mps 737 mmHg 95%
01:00 +19°C° 1.1 mm 3 mps 736 mmHg 95%
02:00 +19°C° 1.1 mm 1 mps 736 mmHg 95%
03:00 +19°C° 0 mm 1 mps 736 mmHg 95%
04:00 +19°C° 0 mm 1 mps 736 mmHg 96%
05:00 +19°C° 0 mm 1 mps 736 mmHg 96%
06:00 +20°C° 0 mm 1 mps 736 mmHg 93%
07:00 +20°C° 0 mm 2 mps 737 mmHg 89%
08:00 +21°C° 0 mm 2 mps 737 mmHg 86%
09:00 +23°C° 0 mm 2 mps 737 mmHg 83%
10:00 +24°C° 0 mm 3 mps 737 mmHg 80%
11:00 +24°C° 0 mm 3 mps 737 mmHg 76%
12:00 +24°C° 0 mm 3 mps 737 mmHg 76%
13:00 +25°C° 0 mm 3 mps 737 mmHg 76%
14:00 +25°C° 0 mm 3 mps 737 mmHg 76%
15:00 +25°C° 0.1 mm 4 mps 737 mmHg 77%
16:00 +23°C° 0.1 mm 4 mps 737 mmHg 78%
17:00 +23°C° 0.1 mm 4 mps 737 mmHg 79%
18:00 +22°C° 0 mm 4 mps 737 mmHg 83%
19:00 +22°C° 0 mm 4 mps 737 mmHg 86%
20:00 +21°C° 0 mm 4 mps 737 mmHg 89%
21:00 +20°C° 0.3 mm 3 mps 737 mmHg 91%
22:00 +19°C° 0.3 mm 3 mps 737 mmHg 93%
23:00 +18°C° 0.3 mm 3 mps 737 mmHg 96%

Day after tomorrow, 27 June, Sunday

Time Temperature Precipitation Wind Pressure Humidity
00:00 +18°C° 0.1 mm 3 mps 737 mmHg 95%
01:00 +17°C° 0.1 mm 3 mps 737 mmHg 95%
02:00 +17°C° 0.1 mm 3 mps 737 mmHg 95%
03:00 +17°C° 0 mm 3 mps 737 mmHg 94%
04:00 +17°C° 0 mm 3 mps 737 mmHg 94%
05:00 +17°C° 0 mm 3 mps 737 mmHg 94%
06:00 +18°C° 0 mm 4 mps 737 mmHg 89%
07:00 +19°C° 0 mm 4 mps 737 mmHg 84%
08:00 +20°C° 0 mm 5 mps 737 mmHg 80%
09:00 +21°C° 0 mm 5 mps 737 mmHg 76%
10:00 +22°C° 0 mm 5 mps 737 mmHg 72%
11:00 +23°C° 0 mm 5 mps 738 mmHg 68%
12:00 +23°C° 0.1 mm 4 mps 738 mmHg 70%
13:00 +23°C° 0.1 mm 4 mps 738 mmHg 71%
14:00 +23°C° 0.1 mm 4 mps 738 mmHg 73%
15:00 +23°C° 0.1 mm 4 mps 738 mmHg 73%
16:00 +23°C° 0.1 mm 4 mps 737 mmHg 72%
17:00 +23°C° 0.1 mm 4 mps 737 mmHg 72%
18:00 +22°C° 0 mm 4 mps 737 mmHg 75%
19:00 +20°C° 0 mm 3 mps 737 mmHg 78%
20:00 +19°C° 0 mm 3 mps 737 mmHg 82%
21:00 +18°C° 0 mm 3 mps 737 mmHg 84%
22:00 +17°C° 0 mm 3 mps 737 mmHg 85%
23:00 +16°C° 0 mm 3 mps 738 mmHg 87%

28 June, Monday

Time Temperature Precipitation Wind Pressure Humidity
00:00 +16°C° 0 mm 3 mps 738 mmHg 89%
01:00 +14°C° 0 mm 3 mps 738 mmHg 91%
02:00 +14°C° 0 mm 3 mps 738 mmHg 93%
03:00 +14°C° 0 mm 3 mps 738 mmHg 93%
04:00 +14°C° 0 mm 3 mps 737 mmHg 94%
05:00 +14°C° 0 mm 3 mps 737 mmHg 94%
06:00 +16°C° 0 mm 3 mps 738 mmHg 89%
07:00 +18°C° 0 mm 3 mps 738 mmHg 83%
08:00 +19°C° 0 mm 4 mps 738 mmHg 78%
09:00 +20°C° 0.1 mm 4 mps 738 mmHg 74%
10:00 +21°C° 0.1 mm 4 mps 738 mmHg 69%
11:00 +22°C° 0.1 mm 4 mps 738 mmHg 65%
12:00 +23°C° 0.3 mm 4 mps 738 mmHg 65%
13:00 +23°C° 0.3 mm 4 mps 738 mmHg 65%
14:00 +23°C° 0.3 mm 4 mps 738 mmHg 64%
15:00 +23°C° 0.4 mm 5 mps 737 mmHg 67%
16:00 +22°C° 0.4 mm 5 mps 737 mmHg 71%
17:00 +22°C° 0.4 mm 5 mps 737 mmHg 74%
18:00 +21°C° 0.2 mm 4 mps 737 mmHg 78%
19:00 +20°C° 0.2 mm 4 mps 737 mmHg 83%
20:00 +18°C° 0.2 mm 3 mps 737 mmHg 88%
21:00 +18°C° 0 mm 3 mps 737 mmHg 90%
22:00 +17°C° 0 mm 3 mps 737 mmHg 91%
23:00 +16°C° 0 mm 3 mps 736 mmHg 93%

29 June, Tuesday

Time Temperature Precipitation Wind Pressure Humidity
00:00 +16°C° 0 mm 3 mps 736 mmHg 93%
01:00 +14°C° 0 mm 3 mps 736 mmHg 93%
02:00 +14°C° 0 mm 3 mps 736 mmHg 93%
03:00 +14°C° 0 mm 3 mps 736 mmHg 93%
04:00 +14°C° 0 mm 3 mps 736 mmHg 92%
05:00 +14°C° 0 mm 3 mps 736 mmHg 92%
06:00 +15°C° 0 mm 4 mps 736 mmHg 88%
07:00 +17°C° 0 mm 4 mps 736 mmHg 85%
08:00 +19°C° 0 mm 4 mps 736 mmHg 81%
09:00 +20°C° 0.2 mm 4 mps 736 mmHg 76%
10:00 +21°C° 0.2 mm 5 mps 735 mmHg 72%
11:00 +22°C° 0.2 mm 5 mps 735 mmHg 67%
12:00 +22°C° 0.2 mm 5 mps 735 mmHg 67%
13:00 +22°C° 0.2 mm 5 mps 735 mmHg 68%
14:00 +22°C° 0.2 mm 4 mps 735 mmHg 69%
15:00 +21°C° 0.3 mm 4 mps 735 mmHg 72%
16:00 +21°C° 0.3 mm 4 mps 735 mmHg 76%
17:00 +20°C° 0.3 mm 3 mps 735 mmHg 79%
18:00 +19°C° 0.1 mm 3 mps 734 mmHg 81%
19:00 +19°C° 0.1 mm 2 mps 734 mmHg 82%
20:00 +18°C° 0.1 mm 2 mps 734 mmHg 84%
21:00 +18°C° 0 mm 2 mps 734 mmHg 85%
22:00 +17°C° 0 mm 2 mps 733 mmHg 86%
23:00 +17°C° 0 mm 3 mps 733 mmHg 87%

30 June, Wednesday

Time Temperature Precipitation Wind Pressure Humidity
00:00 +17°C° 0.1 mm 3 mps 733 mmHg 88%
01:00 +16°C° 0.1 mm 3 mps 733 mmHg 90%
02:00 +16°C° 0.1 mm 3 mps 733 mmHg 91%
03:00 +16°C° 0 mm 2 mps 733 mmHg 91%
04:00 +16°C° 0 mm 2 mps 733 mmHg 91%
05:00 +16°C° 0 mm 2 mps 733 mmHg 91%
06:00 +16°C° 0.1 mm 2 mps 733 mmHg 90%
07:00 +16°C° 0.1 mm 2 mps 733 mmHg 88%
08:00 +17°C° 0.1 mm 3 mps 733 mmHg 87%
09:00 +17°C° 0 mm 3 mps 733 mmHg 84%
10:00 +18°C° 0 mm 3 mps 733 mmHg 81%
11:00 +19°C° 0 mm 3 mps 733 mmHg 78%
12:00 +18°C° 0.1 mm 2 mps 733 mmHg 78%
13:00 +18°C° 0.1 mm 2 mps 733 mmHg 79%
14:00 +19°C° 0.1 mm 1 mps 733 mmHg 79%
15:00 +19°C° 0.1 mm 1 mps 733 mmHg 80%
16:00 +17°C° 0.1 mm 2 mps 733 mmHg 80%
17:00 +17°C° 0.1 mm 2 mps 733 mmHg 80%
18:00 +17°C° 0.1 mm 2 mps 733 mmHg 82%
19:00 +17°C° 0.1 mm 2 mps 733 mmHg 83%
20:00 +17°C° 0.1 mm 2 mps 733 mmHg 84%
21:00 +16°C° 0 mm 2 mps 733 mmHg 84%
22:00 +16°C° 0 mm 3 mps 733 mmHg 83%
23:00 +16°C° 0 mm 3 mps 733 mmHg 82%
Show more

We Need Your Consent

Meteoprog and our Service Providers may store and access personal data such as cookies, device identifiers or other similar technologies on your device and process such data to personalise content and ads, as well as provide social media features and to analyse the traffic.

  • Store and/or access information on your device

    Cookies, device identifiers or other information can be stored or accessed on your device for the purposes indicated above.

  • Personalised ads and content, ad and content measurement, audience insights, and products development

    Ads and content can be personalised based on a profile. More data can be added to better personalise ads and content. Ad and content performance can be measured. Insights about the audience who saw the ads and content can be derived. Such data can be used to develop or improve user’s experience, systems and software.

By clicking ‘I Agree’ you will allow the use of indicated cookies, device identifiers, web beacons or other similar technologies. Your settings can be changed in the browser on your device.

For certain purposes, legitimate interests may be relied on, rather than consent. You can read more about this in our Privacy and Cookie Policy.